sat.trackr.live / text

‹ back to catalog

STARLINK-1582

NORAD 46043 · 2020-055S

PAYLOAD ACTIVE UNKNOWN

§ Identity

Operator
Country
US
Launch date
2020-08-07
Launch site
AFETR
Launch vehicle
Mass (kg)
RCS (m²)

Purposes: comms

External: N2YO · Heavens-Above · Gunter

§ Orbital elements

Epoch: 2026-05-25T03:24:26.430048Z

Period
94.01 min
Inclination
53.1586°
Eccentricity
0.0001469
Mean motion
15.31696893 rev/d
Perigee alt
469.7 km
Apogee alt
471.8 km
Semi-major
6,848.9 km
B*
-1.5385e-5
RAAN
131.1407°
Arg perigee
83.9066°
Mean anomaly
276.2102°
Rev number
32,059

§ Raw data

STARLINK-15821 46043U 20055S   26145.14197257 -.00000843  00000+0 -15385-4 0  99952 46043  53.1586 131.1407 0001469  83.9066 276.2102 15.31696893320596

JSON: /api/v1/satellites/46043 · /tle

For live sub-satellite position, see the globe view (requires WebGL).

§ Visibility from observer

Set your observer location to see the next 7 days of passes ≥ 10°. The values pass through the URL so the page stays shareable.

No JS? Fill the form by hand. The geolocation button needs JavaScript.